| time (UTC) | temp F | wind direction | speed knots | gust knots | rain 1hr in | rain 24hr in | rain mn in | humidity % | barometer mb |
| 20260507065947 | 52 | 233 | 9.6 | 15.6 | 0.00 | 0.00 | 0.00 | 77 | 1012.0 |
| 20260507064438 | 52 | 244 | 7.0 | 13.0 | 0.00 | 0.00 | 0.00 | 78 | 1011.9 |
| 20260507062933 | 51 | 222 | 5.2 | 11.3 | 0.00 | 0.00 | 0.00 | 80 | 1011.8 |
| 20260507061429 | 51 | 234 | 6.1 | 9.6 | 0.00 | 0.00 | 0.00 | 83 | 1011.6 |
| 20260507055919 | 50 | 167 | 5.2 | 10.4 | 0.00 | 0.00 | 0.00 | 85 | 1011.5 |
| 20260507054416 | 50 | 240 | 7.0 | 7.0 | 0.00 | 0.00 | 0.00 | 86 | 1011.5 |
| 20260507052915 | 49 | 209 | 3.5 | 5.2 | 0.00 | 0.00 | 0.00 | 86 | 1011.2 |
| 20260507051415 | 49 | 227 | 7.0 | 8.7 | 0.00 | 0.00 | 0.00 | 86 | 1010.9 |
| 20260507045907 | 48 | 241 | 5.2 | 5.2 | 0.00 | 0.00 | 0.00 | 87 | 1010.6 |
| 20260507044402 | 48 | 234 | 4.3 | 7.0 | 0.00 | 0.00 | 0.00 | 89 | 1010.5 |
| 20260507042901 | 47 | 223 | 1.7 | 3.5 | 0.00 | 0.00 | 0.00 | 91 | 1010.4 |
| 20260507041353 | 46 | 196 | 1.7 | 1.7 | 0.00 | 0.00 | 0.00 | 92 | 1010.8 |
| 20260507035844 | 46 | 203 | 1.7 | 1.7 | 0.00 | 0.00 | 0.00 | 91 | 1010.7 |
| 20260507034336 | 46 | 203 | 0.9 | 0.9 | 0.00 | 0.00 | 0.00 | 90 | 1010.7 |
| 20260507032832 | 46 | 203 | 0.9 | 0.9 | 0.00 | 0.00 | 0.00 | 89 | 1010.6 |
| 20260507031327 | 47 | 203 | 0.0 | 1.7 | 0.00 | 0.00 | 0.00 | 89 | 1010.6 |
| 20260507025815 | 47 | 236 | 1.7 | 2.6 | 0.00 | 0.00 | 0.00 | 88 | 1010.4 |
| 20260507024309 | 47 | 230 | 4.3 | 4.3 | 0.00 | 0.00 | 0.00 | 88 | 1010.4 |
| 20260507022808 | 48 | 212 | 1.7 | 1.7 | 0.00 | 0.00 | 0.00 | 88 | 1010.2 |
| 20260507021255 | 48 | 212 | 0.9 | 2.6 | 0.00 | 0.00 | 0.00 | 88 | 1009.4 |
| 20260507015741 | 48 | 196 | 1.7 | 3.5 | 0.00 | 0.00 | 0.00 | 88 | 1009.3 |
| 20260507014234 | 48 | 217 | 0.9 | 3.5 | 0.00 | 0.00 | 0.00 | 87 | 1009.4 |
| 20260507012727 | 48 | 220 | 3.5 | 3.5 | 0.00 | 0.00 | 0.00 | 87 | 1009.4 |
| 20260507011224 | 49 | 195 | 0.9 | 3.5 | 0.00 | 0.00 | 0.00 | 86 | 1009.3 |
| 20260507005723 | 49 | 213 | 1.7 | 1.7 | 0.00 | 0.00 | 0.00 | 86 | 1009.3 |
| 20260507004211 | 49 | 206 | 1.7 | 1.7 | 0.00 | 0.00 | 0.00 | 85 | 1009.2 |
| 20260507002702 | 50 | 206 | 0.9 | 3.5 | 0.00 | 0.00 | 0.00 | 84 | 1009.1 |
| 20260507001200 | 50 | 199 | 7.0 | 7.0 | 0.00 | 0.00 | 0.00 | 84 | 1009.2 |
| 20260506235648 | 50 | 219 | 1.7 | 4.3 | 0.00 | 0.00 | 0.00 | 85 | 1009.2 |
| 20260506234139 | 50 | 239 | 1.7 | 5.2 | 0.00 | 0.00 | 0.00 | 84 | 1009.3 |
| 20260506232638 | 51 | 209 | 1.7 | 1.7 | 0.00 | 0.00 | 0.00 | 83 | 1009.3 |
| 20260506231138 | 51 | 236 | 0.9 | 5.2 | 0.00 | 0.00 | 0.00 | 83 | 1009.2 |
| 20260506225637 | 51 | 213 | 2.6 | 5.2 | 0.00 | 0.00 | 0.00 | 83 | 1009.1 |
| 20260506224125 | 51 | 234 | 3.5 | 5.2 | 0.00 | 0.00 | 0.00 | 83 | 1009.1 |
| 20260506222617 | 51 | 215 | 1.7 | 2.6 | 0.00 | 0.00 | 0.00 | 82 | 1009.0 |
| 20260506221108 | 51 | 209 | 1.7 | 3.5 | 0.00 | 0.00 | 0.00 | 81 | 1008.9 |
| 20260506215603 | 51 | 237 | 7.8 | 7.8 | 0.00 | 0.23 | 0.00 | 81 | 1008.8 |
| 20260506214055 | 51 | 246 | 5.2 | 7.8 | 0.00 | 0.23 | 0.00 | 81 | 1008.8 |
| 20260506212548 | 52 | 220 | 4.3 | 7.0 | 0.00 | 0.23 | 0.00 | 82 | 1008.6 |
| 20260506211041 | 52 | 243 | 1.7 | 7.0 | 0.00 | 0.23 | 0.00 | 82 | 1008.5 |
| 20260506205541 | 52 | 224 | 5.2 | 7.0 | 0.00 | 0.23 | 0.00 | 82 | 1008.4 |
| 20260506204030 | 52 | 227 | 4.3 | 7.8 | 0.00 | 0.23 | 0.00 | 82 | 1008.4 |
| 20260506202523 | 52 | 195 | 5.2 | 5.2 | 0.00 | 0.23 | 0.00 | 81 | 1008.3 |
| 20260506201048 | 52 | 234 | 5.2 | 5.2 | 0.00 | 0.23 | 0.00 | 81 | 1008.5 |
| 20260506151738 | 55 | 243 | 2.6 | 4.3 | 0.11 | 0.11 | 0.00 | ||
| 20260506151735 | 55 | 243 | 2.6 | 4.3 | 0.11 | 0.11 | 0.00 | 86 | 1005.2 |
| 20260506150530 | 56 | 256 | 5.2 | 8.7 | 0.18 | 0.09 | 0.00 | 83 | 1005.2 |
| 20260506145030 | 60 | 220 | 13.9 | 17.4 | 0.32 | 0.05 | 0.00 | 73 | 1004.8 |
| 20260506143530 | 66 | 224 | 9.6 | 10.4 | 0.00 | 0.00 | 0.00 | 64 | 1003.5 |
| 20260506142022 | 67 | 318 | 4.3 | 4.3 | 0.00 | 0.00 | 0.00 | 53 | 1002.9 |
| 20260506140518 | 68 | 0 | 2.6 | 5.2 | 0.00 | 0.00 | 0.00 | 50 | 1002.6 |
| 20260506135018 | 70 | 21 | 5.2 | 5.2 | 0.00 | 0.00 | 0.00 | 49 | 1002.5 |
| 20260506133548 | 70 | 32 | 5.2 | 5.2 | 0.00 | 0.00 | 0.00 | 48 | 1002.5 |
| 20260506133517 | 70 | 32 | 5.2 | 5.2 | 0.00 | 0.00 | 0.00 | 48 | 1002.5 |
| 20260506132011 | 69 | 8 | 5.2 | 5.2 | 0.00 | 0.00 | 0.00 | 51 | 1002.8 |
| 20260506130505 | 68 | 343 | 5.2 | 5.2 | 0.00 | 0.00 | 0.00 | 50 | 1003.0 |
| 20260506124952 | 69 | 28 | 3.5 | 6.1 | 0.00 | 0.00 | 0.00 | 50 | 1003.1 |
| 20260506123443 | 69 | 0 | 2.6 | 2.6 | 0.00 | 0.00 | 0.00 | 49 | 1003.1 |
| 20260506121941 | 69 | 102 | 3.5 | 3.5 | 0.00 | 0.00 | 0.00 | 52 | 1003.6 |
| 20260506120431 | 68 | 14 | 0.9 | 4.3 | 0.00 | 0.00 | 0.00 | 52 | 1003.6 |
| 20260506114920 | 68 | 76 | 3.5 | 5.2 | 0.00 | 0.00 | 0.00 | 51 | 1003.7 |
| 20260506113424 | 67 | 69 | 2.6 | 3.5 | 0.00 | 0.00 | 0.00 | 50 | 1004.0 |
| 20260506113419 | 67 | 69 | 2.6 | 3.5 | 0.00 | 0.00 | 0.00 | 50 | 1004.0 |
| 20260506111920 | 67 | 79 | 0.9 | 1.7 | 0.00 | 0.00 | 0.00 | 51 | 1004.1 |
| 20260506110418 | 67 | 352 | 5.2 | 5.2 | 0.00 | 0.00 | 0.00 | 50 | 1004.1 |
| 20260506104913 | 66 | 4 | 3.5 | 4.3 | 0.00 | 0.00 | 0.00 | 49 | 1004.6 |
| 20260506103401 | 66 | 0 | 0.9 | 4.3 | 0.00 | 0.00 | 0.00 | 55 | 1004.8 |
| 20260506101857 | 66 | 356 | 1.7 | 3.5 | 0.00 | 0.00 | 0.00 | 54 | 1004.8 |
| 20260506100358 | 66 | 0 | 5.2 | 5.2 | 0.00 | 0.00 | 0.00 | 55 | 1005.1 |
| 20260506094851 | 65 | 1 | 0.9 | 0.9 | 0.00 | 0.00 | 0.00 | 58 | 1004.9 |
| 20260506093340 | 64 | 59 | 3.5 | 3.5 | 0.00 | 0.00 | 0.00 | 58 | 1005.0 |
| 20260506091834 | 64 | 20 | 1.7 | 1.7 | 0.00 | 0.00 | 0.00 | 58 | 1005.0 |
| 20260506090325 | 63 | 16 | 3.5 | 3.5 | 0.00 | 0.00 | 0.00 | 59 | 1005.0 |
| 20260506084824 | 63 | 97 | 0.9 | 3.5 | 0.00 | 0.00 | 0.00 | 60 | 1005.2 |
| 20260506083319 | 62 | 62 | 0.9 | 0.9 | 0.00 | 0.00 | 0.00 | 61 | 1005.3 |
| 20260506081816 | 61 | 344 | 2.6 | 4.3 | 0.00 | 0.00 | 0.00 | 62 | 1005.4 |
| 20260506080308 | 60 | 239 | 1.7 | 1.7 | 0.00 | 0.00 | 0.00 | 62 | 1005.5 |
| 20260506073305 | 58 | 277 | 0.9 | 0.9 | 0.00 | 0.00 | 0.00 | 69 | 1006.0 |
| 20260506071759 | 57 | 330 | 0.0 | 0.9 | 0.00 | 0.00 | 0.00 | 74 | 1006.0 |
| 20260506070251 | 55 | 247 | 1.7 | 4.3 | 0.00 | 0.00 | 0.00 | 81 | 1006.0 |